Location: Brahman Valley
(40.6513°N, 111.8855°W)
Time: 08:46:49
(UTC+00:00)

Tiros 1 despin weight - Pass Details

Date: 20 May 2021
Orbit: 594 x 641 km, 48.2° (Epoch: 22 June)

Event Time Altitude Azimuth Distance (km) Brightness Sun altitude
Rises 08:09:01 0° 289° (WNW) 2,942 ? -28.4°
Enters shadow 08:09:36 - 286° (WNW) 2,745 ? -28.4°
Reaches altitude 10° 08:11:54 10° 272° (W) 2,029 - -28.3°
Maximum altitude 08:15:12 19° 226° (SW) 1,506 - -28.1°
Drops below altitude 10° 08:18:29 10° 181° (S) 2,012 - -28.0°
Sets 08:21:20 0° 164° (SSE) 2,910 - -27.9°
